| time (UTC) | temp F | wind direction | speed MPH | gust MPH | rain 1hr in | rain 24hr in | rain mn in | humidity % | barometer mb |
| 20260831040510 | 90 | 159 | 3.0 | 7.0 | 0.00 | 0.00 | 0.00 | 40 | 1015.0 |
| 20260831040009 | 90 | 96 | 1.0 | 3.0 | 0.00 | 0.00 | 0.00 | 40 | 1014.8 |
| 20260831035502 | 90 | 185 | 3.0 | 4.0 | 0.00 | 0.00 | 0.00 | 40 | 1014.7 |
| 20260831034957 | 90 | 142 | 1.0 | 4.0 | 0.00 | 0.00 | 0.00 | 39 | 1014.7 |
| 20260831034451 | 91 | 141 | 1.0 | 2.0 | 0.00 | 0.00 | 0.00 | 39 | 1014.9 |
| 20260831033947 | 91 | 154 | 4.0 | 6.0 | 0.00 | 0.00 | 0.00 | 39 | 1014.9 |
| 20260831033442 | 91 | 94 | 3.0 | 8.0 | 0.00 | 0.00 | 0.00 | 39 | 1014.9 |
| 20260831032937 | 91 | 141 | 0.0 | 3.0 | 0.00 | 0.00 | 0.00 | 39 | 1014.9 |
| 20260831032432 | 91 | 112 | 0.0 | 6.0 | 0.00 | 0.00 | 0.00 | 39 | 1014.8 |
| 20260831031927 | 91 | 202 | 4.0 | 6.0 | 0.00 | 0.00 | 0.00 | 39 | 1014.8 |
| 20260831031426 | 92 | 150 | 2.0 | 7.0 | 0.00 | 0.00 | 0.00 | 39 | 1014.7 |
| 20260831030921 | 92 | 219 | 1.0 | 4.0 | 0.00 | 0.00 | 0.00 | 39 | 1014.6 |
| 20260831030420 | 92 | 189 | 4.0 | 8.0 | 0.00 | 0.00 | 0.00 | 39 | 1014.6 |
| 20260831025918 | 92 | 162 | 4.0 | 7.0 | 0.00 | 0.00 | 0.00 | 38 | 1014.7 |
| 20260831025418 | 92 | 158 | 1.0 | 6.0 | 0.00 | 0.00 | 0.00 | 38 | 1014.6 |
| 20260831024914 | 92 | 194 | 3.0 | 6.0 | 0.00 | 0.00 | 0.00 | 39 | 1014.2 |
| 20260831024413 | 93 | 170 | 2.0 | 9.0 | 0.00 | 0.00 | 0.00 | 38 | 1014.3 |
| 20260831023908 | 93 | 237 | 4.0 | 11.0 | 0.00 | 0.00 | 0.00 | 38 | 1014.2 |
| 20260831023406 | 93 | 193 | 1.0 | 4.0 | 0.00 | 0.00 | 0.00 | 38 | 1014.1 |
| 20260831022901 | 93 | 212 | 1.0 | 8.0 | 0.00 | 0.00 | 0.00 | 37 | 1013.9 |
| 20260831022400 | 93 | 165 | 1.0 | 4.0 | 0.00 | 0.00 | 0.00 | 37 | 1013.9 |
| 20260831021854 | 93 | 166 | 6.0 | 8.0 | 0.00 | 0.00 | 0.00 | 37 | 1014.0 |
| 20260831021348 | 93 | 148 | 6.0 | 8.0 | 0.00 | 0.00 | 0.00 | 36 | 1013.9 |
| 20260831020839 | 94 | 228 | 1.0 | 10.0 | 0.00 | 0.00 | 0.00 | 36 | 1013.7 |
| 20260831020339 | 94 | 163 | 2.0 | 6.0 | 0.00 | 0.00 | 0.00 | 36 | 1013.6 |
| 20260831015834 | 94 | 50 | 1.0 | 7.0 | 0.00 | 0.00 | 0.00 | 35 | 1013.6 |
| 20260831015330 | 94 | 125 | 1.0 | 4.0 | 0.00 | 0.00 | 0.00 | 35 | 1013.5 |
| 20260831014829 | 95 | 160 | 1.0 | 2.0 | 0.00 | 0.00 | 0.00 | 35 | 1013.4 |
| 20260831014324 | 95 | 221 | 3.0 | 3.0 | 0.00 | 0.00 | 0.00 | 34 | 1013.5 |
| 20260831013821 | 95 | 146 | 1.0 | 6.0 | 0.00 | 0.00 | 0.00 | 34 | 1013.4 |
| 20260831013320 | 95 | 170 | 3.0 | 3.0 | 0.00 | 0.00 | 0.00 | 34 | 1013.4 |
| 20260831012815 | 95 | 194 | 6.0 | 8.0 | 0.00 | 0.00 | 0.00 | 33 | 1013.2 |
| 20260831012311 | 96 | 158 | 4.0 | 9.0 | 0.00 | 0.00 | 0.00 | 33 | 1013.3 |
| 20260831011809 | 96 | 132 | 0.0 | 4.0 | 0.00 | 0.00 | 0.00 | 34 | 1013.1 |
| 20260831011304 | 96 | 189 | 3.0 | 7.0 | 0.00 | 0.00 | 0.00 | 33 | 1013.3 |
| 20260831010800 | 96 | 148 | 1.0 | 3.0 | 0.00 | 0.00 | 0.00 | 33 | 1012.9 |
| 20260831010255 | 97 | 159 | 1.0 | 3.0 | 0.00 | 0.00 | 0.00 | 32 | 1013.1 |
| 20260831005751 | 97 | 189 | 4.0 | 6.0 | 0.00 | 0.00 | 0.00 | 32 | 1013.2 |
| 20260831005246 | 98 | 195 | 4.0 | 10.0 | 0.00 | 0.00 | 0.00 | 31 | 1013.1 |
| 20260831004741 | 98 | 178 | 6.0 | 8.0 | 0.00 | 0.00 | 0.00 | 31 | 1013.0 |
| 20260831004237 | 98 | 188 | 2.0 | 3.0 | 0.00 | 0.00 | 0.00 | 31 | 1013.1 |
| 20260831003732 | 99 | 163 | 7.0 | 10.0 | 0.00 | 0.00 | 0.00 | 31 | 1013.2 |
| 20260831003229 | 99 | 188 | 6.0 | 9.0 | 0.00 | 0.00 | 0.00 | 30 | 1013.0 |
| 20260831002728 | 99 | 183 | 2.0 | 13.0 | 0.00 | 0.00 | 0.00 | 30 | 1012.9 |
| 20260831002227 | 100 | 178 | 3.0 | 6.0 | 0.00 | 0.00 | 0.00 | 30 | 1013.1 |
| 20260831001723 | 100 | 201 | 2.0 | 9.0 | 0.00 | 0.00 | 0.00 | 30 | 1012.9 |
| 20260831001218 | 100 | 158 | 2.0 | 7.0 | 0.00 | 0.00 | 0.00 | 29 | 1013.0 |
| 20260831000715 | 100 | 167 | 2.0 | 8.0 | 0.00 | 0.00 | 0.00 | 30 | 1013.0 |
| 20260831000211 | 100 | 191 | 9.0 | 11.0 | 0.00 | 0.00 | 0.00 | 29 | 1013.0 |
| 20260830235709 | 101 | 161 | 4.0 | 9.0 | 0.00 | 0.00 | 0.00 | 29 | 1013.0 |
| 20260830235204 | 101 | 114 | 4.0 | 6.0 | 0.00 | 0.00 | 0.00 | 29 | 1013.0 |
| 20260830234658 | 101 | 212 | 5.0 | 11.0 | 0.00 | 0.00 | 0.00 | 29 | 1013.0 |
| 20260830234154 | 102 | 199 | 3.0 | 8.0 | 0.00 | 0.00 | 0.00 | 29 | 1013.0 |
| 20260830233650 | 101 | 170 | 5.0 | 6.0 | 0.00 | 0.00 | 0.00 | 29 | 1012.9 |
| 20260830233145 | 102 | 194 | 4.0 | 7.0 | 0.00 | 0.00 | 0.00 | 28 | 1013.0 |
| 20260830232641 | 101 | 216 | 4.0 | 8.0 | 0.00 | 0.00 | 0.00 | 28 | 1013.0 |
| 20260830232137 | 102 | 201 | 5.0 | 9.0 | 0.00 | 0.00 | 0.00 | 28 | 1012.9 |
| 20260830231633 | 102 | 139 | 1.0 | 7.0 | 0.00 | 0.00 | 0.00 | 28 | 1013.1 |
| 20260830231132 | 102 | 166 | 5.0 | 13.0 | 0.00 | 0.00 | 0.00 | 28 | 1013.0 |
| 20260830230627 | 102 | 196 | 1.0 | 7.0 | 0.00 | 0.00 | 0.00 | 28 | 1012.9 |
| 20260830230127 | 102 | 35 | 2.0 | 13.0 | 0.00 | 0.00 | 0.00 | 29 | 1013.0 |
| 20260830225617 | 103 | 196 | 3.0 | 8.0 | 0.00 | 0.00 | 0.00 | 28 | 1013.0 |
| 20260830225112 | 103 | 187 | 3.0 | 6.0 | 0.00 | 0.00 | 0.00 | 28 | 1013.0 |
| 20260830224610 | 103 | 31 | 2.0 | 4.0 | 0.00 | 0.00 | 0.00 | 27 | 1012.9 |
| 20260830224107 | 103 | 207 | 6.0 | 9.0 | 0.00 | 0.00 | 0.00 | 28 | 1013.0 |
| 20260830223603 | 103 | 153 | 3.0 | 10.0 | 0.00 | 0.00 | 0.00 | 27 | 1013.0 |
| 20260830223057 | 102 | 199 | 6.0 | 9.0 | 0.00 | 0.00 | 0.00 | 28 | 1012.8 |
| 20260830222552 | 104 | 183 | 4.0 | 7.0 | 0.00 | 0.00 | 0.00 | 27 | 1013.0 |
| 20260830222048 | 104 | 193 | 2.0 | 4.0 | 0.00 | 0.00 | 0.00 | 27 | 1012.9 |
| 20260830221543 | 104 | 94 | 5.0 | 11.0 | 0.00 | 0.00 | 0.00 | 27 | 1013.1 |
| 20260830221040 | 103 | 219 | 4.0 | 8.0 | 0.00 | 0.00 | 0.00 | 27 | 1012.9 |
| 20260830220538 | 104 | 174 | 7.0 | 11.0 | 0.00 | 0.00 | 0.00 | 27 | 1012.9 |
| 20260830220037 | 104 | 165 | 6.0 | 7.0 | 0.00 | 0.00 | 0.00 | 27 | 1013.1 |
| 20260830215532 | 105 | 188 | 3.0 | 8.0 | 0.00 | 0.00 | 0.00 | 27 | 1013.1 |
| 20260830215026 | 106 | 177 | 5.0 | 7.0 | 0.00 | 0.00 | 0.00 | 26 | 1012.8 |
| 20260830214521 | 105 | 262 | 2.0 | 6.0 | 0.00 | 0.00 | 0.00 | 26 | 1012.9 |
| 20260830214021 | 104 | 189 | 4.0 | 11.0 | 0.00 | 0.00 | 0.00 | 27 | 1013.1 |
| 20260830213516 | 104 | 220 | 6.0 | 10.0 | 0.00 | 0.00 | 0.00 | 27 | 1013.0 |
| 20260830213012 | 105 | 197 | 4.0 | 10.0 | 0.00 | 0.00 | 0.00 | 27 | 1013.2 |
| 20260830212507 | 105 | 193 | 7.0 | 13.0 | 0.00 | 0.00 | 0.00 | 27 | 1013.2 |
| 20260830212002 | 104 | 193 | 8.0 | 14.0 | 0.00 | 0.00 | 0.00 | 27 | 1013.3 |
| 20260830211456 | 105 | 246 | 4.0 | 7.0 | 0.00 | 0.00 | 0.00 | 26 | 1013.5 |
| 20260830210952 | 104 | 181 | 2.0 | 7.0 | 0.00 | 0.00 | 0.00 | 27 | 1013.5 |
| 20260830210451 | 104 | 171 | 4.0 | 7.0 | 0.00 | 0.00 | 0.00 | 27 | 1013.7 |
| 20260830205949 | 105 | 192 | 5.0 | 9.0 | 0.00 | 0.00 | 0.00 | 27 | 1013.6 |
| 20260830205448 | 104 | 200 | 5.0 | 9.0 | 0.00 | 0.00 | 0.00 | 28 | 1013.8 |
| 20260830204944 | 105 | 189 | 5.0 | 8.0 | 0.00 | 0.00 | 0.00 | 27 | 1013.8 |
| 20260830204443 | 105 | 98 | 3.0 | 8.0 | 0.00 | 0.00 | 0.00 | 27 | 1013.7 |
| 20260830203938 | 103 | 170 | 2.0 | 9.0 | 0.00 | 0.00 | 0.00 | 28 | 1013.8 |
| 20260830203434 | 103 | 188 | 5.0 | 9.0 | 0.00 | 0.00 | 0.00 | 28 | 1013.9 |
| 20260830202933 | 104 | 208 | 7.0 | 9.0 | 0.00 | 0.00 | 0.00 | 28 | 1014.0 |
| 20260830202428 | 104 | 229 | 4.0 | 9.0 | 0.00 | 0.00 | 0.00 | 29 | 1013.9 |
| 20260830201924 | 103 | 239 | 5.0 | 8.0 | 0.00 | 0.00 | 0.00 | 28 | 1014.3 |
| 20260830201418 | 104 | 235 | 10.0 | 13.0 | 0.00 | 0.00 | 0.00 | 28 | 1014.2 |
| 20260830200914 | 104 | 247 | 4.0 | 10.0 | 0.00 | 0.00 | 0.00 | 27 | 1014.2 |
| 20260830200413 | 104 | 357 | 8.0 | 11.0 | 0.00 | 0.00 | 0.00 | 28 | 1014.0 |
| 20260830195903 | 104 | 190 | 6.0 | 11.0 | 0.00 | 0.00 | 0.00 | 28 | 1014.2 |
| 20260830195402 | 103 | 194 | 6.0 | 8.0 | 0.00 | 0.00 | 0.00 | 28 | 1014.6 |
| 20260830194900 | 103 | 159 | 5.0 | 11.0 | 0.00 | 0.00 | 0.00 | 28 | 1014.4 |
| 20260830194355 | 103 | 165 | 3.0 | 9.0 | 0.00 | 0.00 | 0.00 | 29 | 1014.8 |
| 20260830193849 | 102 | 230 | 12.0 | 15.0 | 0.00 | 0.00 | 0.00 | 29 | 1014.9 |
| 20260830193343 | 103 | 264 | 7.0 | 16.0 | 0.00 | 0.00 | 0.00 | 30 | 1014.7 |
| 20260830192839 | 104 | 281 | 6.0 | 8.0 | 0.00 | 0.00 | 0.00 | 29 | 1014.7 |
| 20260830192338 | 103 | 198 | 4.0 | 9.0 | 0.00 | 0.00 | 0.00 | 29 | 1014.6 |
| 20260830191834 | 103 | 193 | 6.0 | 16.0 | 0.00 | 0.00 | 0.00 | 30 | 1015.0 |
| 20260830191333 | 102 | 168 | 6.0 | 15.0 | 0.00 | 0.00 | 0.00 | 30 | 1014.8 |
| 20260830190830 | 103 | 204 | 9.0 | 16.0 | 0.00 | 0.00 | 0.00 | 29 | 1014.7 |
| 20260830190330 | 103 | 196 | 5.0 | 9.0 | 0.00 | 0.00 | 0.00 | 30 | 1014.8 |
| 20260830185829 | 103 | 193 | 5.0 | 15.0 | 0.00 | 0.00 | 0.00 | 30 | 1015.1 |
| 20260830185324 | 103 | 178 | 6.0 | 10.0 | 0.00 | 0.00 | 0.00 | 30 | 1015.0 |
| 20260830184819 | 102 | 278 | 5.0 | 15.0 | 0.00 | 0.00 | 0.00 | 31 | 1015.0 |
| 20260830184312 | 102 | 241 | 8.0 | 10.0 | 0.00 | 0.00 | 0.00 | 30 | 1015.1 |
| 20260830183807 | 102 | 257 | 12.0 | 18.0 | 0.00 | 0.00 | 0.00 | 31 | 1015.2 |
| 20260830183301 | 102 | 190 | 6.0 | 17.0 | 0.00 | 0.00 | 0.00 | 31 | 1015.4 |
| 20260830182757 | 103 | 175 | 6.0 | 13.0 | 0.00 | 0.00 | 0.00 | 32 | 1015.3 |
| 20260830182252 | 101 | 263 | 7.0 | 10.0 | 0.00 | 0.00 | 0.00 | 32 | 1015.4 |
| 20260830181748 | 101 | 299 | 11.0 | 16.0 | 0.00 | 0.00 | 0.00 | 33 | 1015.7 |
| 20260830181243 | 102 | 207 | 9.0 | 17.0 | 0.00 | 0.00 | 0.00 | 31 | 1015.5 |
| 20260830180742 | 101 | 181 | 6.0 | 13.0 | 0.00 | 0.00 | 0.00 | 33 | 1015.8 |
| 20260830180237 | 101 | 196 | 8.0 | 13.0 | 0.00 | 0.00 | 0.00 | 32 | 1015.6 |
| 20260830175732 | 100 | 222 | 8.0 | 13.0 | 0.00 | 0.00 | 0.00 | 33 | 1015.7 |
| 20260830175227 | 100 | 253 | 4.0 | 10.0 | 0.00 | 0.00 | 0.00 | 32 | 1015.7 |
| 20260830174721 | 100 | 177 | 5.0 | 14.0 | 0.00 | 0.00 | 0.00 | 33 | 1015.4 |
| 20260830174218 | 100 | 211 | 10.0 | 13.0 | 0.00 | 0.00 | 0.00 | 33 | 1015.7 |
| 20260830173717 | 100 | 135 | 9.0 | 14.0 | 0.00 | 0.00 | 0.00 | 35 | 1015.7 |
| 20260830173212 | 100 | 155 | 4.0 | 10.0 | 0.00 | 0.00 | 0.00 | 35 | 1015.9 |
| 20260830172709 | 100 | 201 | 3.0 | 9.0 | 0.00 | 0.00 | 0.00 | 35 | 1016.0 |
| 20260830172205 | 98 | 238 | 9.0 | 14.0 | 0.00 | 0.00 | 0.00 | 35 | 1015.8 |
| 20260830171700 | 99 | 211 | 4.0 | 13.0 | 0.00 | 0.00 | 0.00 | 35 | 1016.1 |
| 20260830171155 | 98 | 181 | 6.0 | 11.0 | 0.00 | 0.00 | 0.00 | 36 | 1016.2 |
| 20260830170650 | 98 | 207 | 6.0 | 9.0 | 0.00 | 0.00 | 0.00 | 36 | 1016.3 |
| 20260830170149 | 99 | 237 | 4.0 | 17.0 | 0.00 | 0.00 | 0.00 | 36 | 1016.4 |
| 20260830165644 | 98 | 191 | 9.0 | 13.0 | 0.00 | 0.00 | 0.00 | 37 | 1016.1 |
| 20260830165139 | 98 | 138 | 14.0 | 21.0 | 0.00 | 0.00 | 0.00 | 36 | 1016.5 |
| 20260830164636 | 98 | 187 | 8.0 | 14.0 | 0.00 | 0.00 | 0.00 | 37 | 1016.6 |
| 20260830164131 | 98 | 236 | 6.0 | 10.0 | 0.00 | 0.00 | 0.00 | 37 | 1016.5 |
| 20260830163628 | 98 | 256 | 8.0 | 16.0 | 0.00 | 0.00 | 0.00 | 36 | 1016.6 |
| 20260830163127 | 97 | 172 | 8.0 | 16.0 | 0.00 | 0.00 | 0.00 | 37 | 1016.5 |
| 20260830162623 | 97 | 164 | 6.0 | 11.0 | 0.00 | 0.00 | 0.00 | 38 | 1016.6 |
| 20260830162118 | 97 | 223 | 5.0 | 7.0 | 0.00 | 0.00 | 0.00 | 37 | 1016.6 |
| 20260830161613 | 96 | 194 | 9.0 | 15.0 | 0.00 | 0.00 | 0.00 | 38 | 1016.7 |
| 20260830161108 | 96 | 125 | 7.0 | 10.0 | 0.00 | 0.00 | 0.00 | 38 | 1016.5 |
| 20260830160604 | 96 | 184 | 5.0 | 9.0 | 0.00 | 0.00 | 0.00 | 39 | 1016.6 |
| 20260830160058 | 95 | 235 | 7.0 | 14.0 | 0.00 | 0.00 | 0.00 | 40 | 1016.7 |
| 20260830155554 | 95 | 225 | 5.0 | 13.0 | 0.00 | 0.00 | 0.00 | 41 | 1016.5 |
| 20260830155050 | 94 | 187 | 4.0 | 7.0 | 0.00 | 0.00 | 0.00 | 42 | 1016.5 |
| 20260830154545 | 93 | 272 | 3.0 | 10.0 | 0.00 | 0.00 | 0.00 | 43 | 1016.7 |
| 20260830154042 | 93 | 179 | 6.0 | 8.0 | 0.00 | 0.00 | 0.00 | 43 | 1016.6 |
| 20260830153538 | 92 | 215 | 6.0 | 8.0 | 0.00 | 0.00 | 0.00 | 44 | 1016.6 |
| 20260830153037 | 92 | 173 | 8.0 | 13.0 | 0.00 | 0.00 | 0.00 | 44 | 1016.6 |
| 20260830152531 | 91 | 158 | 4.0 | 14.0 | 0.00 | 0.00 | 0.00 | 45 | 1016.6 |
| 20260830152030 | 91 | 222 | 9.0 | 14.0 | 0.00 | 0.00 | 0.00 | 46 | 1016.9 |
| 20260830151525 | 90 | 185 | 4.0 | 9.0 | 0.00 | 0.00 | 0.00 | 47 | 1016.8 |
| 20260830151020 | 89 | 214 | 4.0 | 6.0 | 0.00 | 0.00 | 0.00 | 47 | 1016.7 |
| 20260830150519 | 89 | 205 | 4.0 | 10.0 | 0.00 | 0.00 | 0.00 | 48 | 1016.5 |
| 20260830150014 | 88 | 207 | 2.0 | 10.0 | 0.00 | 0.00 | 0.00 | 48 | 1016.8 |
| 20260830145508 | 88 | 189 | 6.0 | 16.0 | 0.00 | 0.00 | 0.00 | 48 | 1016.7 |
| 20260830145003 | 88 | 175 | 4.0 | 10.0 | 0.00 | 0.00 | 0.00 | 48 | 1016.9 |
| 20260830144459 | 87 | 179 | 4.0 | 8.0 | 0.00 | 0.00 | 0.00 | 49 | 1016.9 |
| 20260830143954 | 87 | 153 | 4.0 | 14.0 | 0.00 | 0.00 | 0.00 | 49 | 1017.0 |
| 20260830143450 | 87 | 172 | 10.0 | 11.0 | 0.00 | 0.00 | 0.00 | 49 | 1016.8 |
| 20260830142948 | 86 | 182 | 4.0 | 13.0 | 0.00 | 0.00 | 0.00 | 50 | 1016.9 |
| 20260830142443 | 86 | 189 | 7.0 | 13.0 | 0.00 | 0.00 | 0.00 | 50 | 1016.9 |
| 20260830141938 | 86 | 210 | 4.0 | 7.0 | 0.00 | 0.00 | 0.00 | 50 | 1016.7 |
| 20260830141434 | 86 | 193 | 9.0 | 11.0 | 0.00 | 0.00 | 0.00 | 50 | 1016.9 |
| 20260830140929 | 86 | 197 | 3.0 | 11.0 | 0.00 | 0.00 | 0.00 | 50 | 1016.8 |
| 20260830140424 | 85 | 200 | 6.0 | 9.0 | 0.00 | 0.00 | 0.00 | 51 | 1017.0 |
| 20260830135923 | 86 | 193 | 6.0 | 8.0 | 0.00 | 0.00 | 0.00 | 50 | 1016.8 |
| 20260830135419 | 85 | 163 | 6.0 | 9.0 | 0.00 | 0.00 | 0.00 | 50 | 1017.1 |
| 20260830134914 | 85 | 201 | 5.0 | 14.0 | 0.00 | 0.00 | 0.00 | 50 | 1016.8 |
| 20260830134410 | 85 | 184 | 4.0 | 6.0 | 0.00 | 0.00 | 0.00 | 51 | 1016.8 |
| 20260830133905 | 85 | 194 | 5.0 | 7.0 | 0.00 | 0.00 | 0.00 | 51 | 1016.9 |
| 20260830133401 | 84 | 160 | 4.0 | 8.0 | 0.00 | 0.00 | 0.00 | 51 | 1017.0 |
| 20260830132855 | 84 | 194 | 7.0 | 8.0 | 0.00 | 0.00 | 0.00 | 51 | 1016.7 |
| 20260830132352 | 83 | 208 | 1.0 | 4.0 | 0.00 | 0.00 | 0.00 | 52 | 1016.9 |
| 20260830131850 | 83 | 177 | 4.0 | 4.0 | 0.00 | 0.00 | 0.00 | 52 | 1016.9 |
| 20260830131350 | 82 | 137 | 0.0 | 4.0 | 0.00 | 0.00 | 0.00 | 53 | 1016.8 |
| 20260830130845 | 82 | 217 | 4.0 | 8.0 | 0.00 | 0.00 | 0.00 | 54 | 1016.8 |
| 20260830130341 | 81 | 188 | 3.0 | 3.0 | 0.00 | 0.00 | 0.00 | 54 | 1016.8 |
| 20260830125840 | 82 | 183 | 0.0 | 1.0 | 0.00 | 0.00 | 0.00 | 54 | 1016.7 |
| 20260830125336 | 81 | 193 | 3.0 | 6.0 | 0.00 | 0.00 | 0.00 | 55 | 1016.6 |
| 20260830124833 | 81 | 204 | 1.0 | 2.0 | 0.00 | 0.00 | 0.00 | 55 | 1016.7 |
| 20260830124328 | 80 | 179 | 2.0 | 4.0 | 0.00 | 0.00 | 0.00 | 56 | 1016.7 |
| 20260830123825 | 80 | 184 | 3.0 | 4.0 | 0.00 | 0.00 | 0.00 | 56 | 1016.7 |
| 20260830123321 | 80 | 194 | 1.0 | 3.0 | 0.00 | 0.00 | 0.00 | 56 | 1016.4 |
| 20260830122819 | 79 | 148 | 0.0 | 6.0 | 0.00 | 0.00 | 0.00 | 56 | 1016.5 |
| 20260830122313 | 79 | 203 | 1.0 | 2.0 | 0.00 | 0.00 | 0.00 | 57 | 1016.4 |
| 20260830121809 | 80 | 125 | 0.0 | 1.0 | 0.00 | 0.00 | 0.00 | 56 | 1016.3 |
| 20260830121308 | 79 | 182 | 2.0 | 3.0 | 0.00 | 0.00 | 0.00 | 56 | 1016.4 |
| 20260830120803 | 80 | 138 | 0.0 | 7.0 | 0.00 | 0.00 | 0.00 | 56 | 1016.4 |
| 20260830120259 | 80 | 174 | 2.0 | 4.0 | 0.00 | 0.00 | 0.00 | 56 | 1016.3 |
| 20260830115755 | 80 | 176 | 3.0 | 6.0 | 0.00 | 0.00 | 0.00 | 56 | 1016.2 |
| 20260830115251 | 80 | 127 | 1.0 | 3.0 | 0.00 | 0.00 | 0.00 | 56 | 1016.2 |
| 20260830114747 | 80 | 210 | 1.0 | 4.0 | 0.00 | 0.00 | 0.00 | 55 | 1016.3 |
| 20260830114242 | 80 | 193 | 4.0 | 6.0 | 0.00 | 0.00 | 0.00 | 55 | 1016.2 |
| 20260830113737 | 80 | 181 | 1.0 | 3.0 | 0.00 | 0.00 | 0.00 | 55 | 1016.2 |
| 20260830113232 | 80 | 14 | 1.0 | 2.0 | 0.00 | 0.00 | 0.00 | 55 | 1015.9 |
| 20260830112728 | 80 | 226 | 2.0 | 6.0 | 0.00 | 0.00 | 0.00 | 55 | 1016.1 |
| 20260830112224 | 80 | 188 | 1.0 | 1.0 | 0.00 | 0.00 | 0.00 | 55 | 1016.4 |
| 20260830111719 | 80 | 23 | 1.0 | 2.0 | 0.00 | 0.00 | 0.00 | 55 | 1016.1 |
| 20260830111214 | 80 | 88 | 0.0 | 6.0 | 0.00 | 0.00 | 0.00 | 55 | 1016.0 |
| 20260830110709 | 80 | 219 | 1.0 | 3.0 | 0.00 | 0.00 | 0.00 | 55 | 1016.2 |
| 20260830110206 | 80 | 132 | 1.0 | 2.0 | 0.00 | 0.00 | 0.00 | 54 | 1015.9 |
| 20260830105705 | 80 | 95 | 1.0 | 3.0 | 0.00 | 0.00 | 0.00 | 54 | 1016.1 |
| 20260830105201 | 80 | 99 | 1.0 | 3.0 | 0.00 | 0.00 | 0.00 | 54 | 1016.0 |
| 20260830104657 | 80 | 116 | 1.0 | 2.0 | 0.00 | 0.00 | 0.00 | 54 | 1016.0 |
| 20260830104154 | 81 | 182 | 1.0 | 3.0 | 0.00 | 0.00 | 0.00 | 54 | 1016.2 |
| 20260830103653 | 81 | 193 | 0.0 | 4.0 | 0.00 | 0.00 | 0.00 | 54 | 1016.1 |
| 20260830103149 | 81 | 187 | 2.0 | 3.0 | 0.00 | 0.00 | 0.00 | 53 | 1016.1 |
| 20260830102647 | 81 | 194 | 0.0 | 3.0 | 0.00 | 0.00 | 0.00 | 53 | 1016.0 |
| 20260830102143 | 81 | 184 | 1.0 | 2.0 | 0.00 | 0.00 | 0.00 | 53 | 1016.0 |
| 20260830101639 | 81 | 162 | 1.0 | 6.0 | 0.00 | 0.00 | 0.00 | 52 | 1015.8 |
| 20260830101138 | 81 | 133 | 2.0 | 4.0 | 0.00 | 0.00 | 0.00 | 52 | 1015.8 |
| 20260830100633 | 82 | 185 | 2.0 | 3.0 | 0.00 | 0.00 | 0.00 | 52 | 1015.8 |
| 20260830100132 | 82 | 171 | 1.0 | 3.0 | 0.00 | 0.00 | 0.00 | 52 | 1015.8 |
| 20260830095626 | 82 | 130 | 1.0 | 9.0 | 0.00 | 0.00 | 0.00 | 51 | 1015.6 |
| 20260830095123 | 82 | 141 | 1.0 | 3.0 | 0.00 | 0.00 | 0.00 | 51 | 1015.9 |
| 20260830094619 | 82 | 83 | 2.0 | 4.0 | 0.00 | 0.00 | 0.00 | 51 | 1015.9 |
| 20260830094114 | 82 | 218 | 2.0 | 6.0 | 0.00 | 0.00 | 0.00 | 51 | 1015.8 |
| 20260830093609 | 82 | 179 | 3.0 | 4.0 | 0.00 | 0.00 | 0.00 | 51 | 1015.7 |
| 20260830093105 | 82 | 172 | 1.0 | 4.0 | 0.00 | 0.00 | 0.00 | 50 | 1015.5 |
| 20260830092554 | 83 | 158 | 1.0 | 3.0 | 0.00 | 0.00 | 0.00 | 50 | 1015.7 |
| 20260830092051 | 83 | 156 | 2.0 | 7.0 | 0.00 | 0.00 | 0.00 | 50 | 1015.5 |
| 20260830091546 | 83 | 178 | 1.0 | 9.0 | 0.00 | 0.00 | 0.00 | 49 | 1015.5 |
| 20260830091045 | 83 | 165 | 2.0 | 4.0 | 0.00 | 0.00 | 0.00 | 49 | 1015.4 |
| 20260830090540 | 83 | 185 | 3.0 | 4.0 | 0.00 | 0.00 | 0.00 | 49 | 1015.2 |
| 20260830090035 | 83 | 152 | 1.0 | 6.0 | 0.00 | 0.00 | 0.00 | 49 | 1015.4 |
| 20260830085534 | 83 | 166 | 2.0 | 7.0 | 0.00 | 0.00 | 0.00 | 49 | 1015.4 |
| 20260830085031 | 83 | 158 | 2.0 | 4.0 | 0.00 | 0.00 | 0.00 | 49 | 1015.4 |
| 20260830084526 | 83 | 179 | 1.0 | 3.0 | 0.00 | 0.00 | 0.00 | 49 | 1015.6 |
| 20260830084021 | 83 | 143 | 2.0 | 3.0 | 0.00 | 0.00 | 0.00 | 49 | 1015.4 |
| 20260830083516 | 83 | 169 | 2.0 | 4.0 | 0.00 | 0.00 | 0.00 | 49 | 1015.5 |
| 20260830083010 | 83 | 174 | 5.0 | 9.0 | 0.00 | 0.00 | 0.00 | 48 | 1015.4 |
| 20260830082506 | 83 | 83 | 4.0 | 8.0 | 0.00 | 0.00 | 0.00 | 48 | 1015.4 |
| 20260830082000 | 84 | 192 | 0.0 | 7.0 | 0.00 | 0.00 | 0.00 | 48 | 1015.5 |
| 20260830081455 | 84 | 187 | 1.0 | 4.0 | 0.00 | 0.00 | 0.00 | 48 | 1015.4 |
| 20260830080955 | 84 | 209 | 2.0 | 7.0 | 0.00 | 0.00 | 0.00 | 48 | 1015.5 |
| 20260830080451 | 84 | 174 | 1.0 | 6.0 | 0.00 | 0.00 | 0.00 | 48 | 1015.4 |
| 20260830075950 | 84 | 198 | 6.0 | 8.0 | 0.00 | 0.00 | 0.00 | 47 | 1015.3 |
| 20260830075445 | 84 | 194 | 3.0 | 6.0 | 0.00 | 0.00 | 0.00 | 48 | 1015.4 |
| 20260830074941 | 84 | 206 | 2.0 | 3.0 | 0.00 | 0.00 | 0.00 | 47 | 1015.3 |
| 20260830074437 | 84 | 63 | 2.0 | 4.0 | 0.00 | 0.00 | 0.00 | 47 | 1015.5 |
| 20260830073932 | 85 | 87 | 0.0 | 2.0 | 0.00 | 0.00 | 0.00 | 47 | 1015.5 |
| 20260830073428 | 85 | 191 | 4.0 | 4.0 | 0.00 | 0.00 | 0.00 | 46 | 1015.5 |
| 20260830072923 | 85 | 169 | 1.0 | 6.0 | 0.00 | 0.00 | 0.00 | 46 | 1015.6 |
| 20260830072419 | 85 | 214 | 1.0 | 2.0 | 0.00 | 0.00 | 0.00 | 46 | 1015.7 |
| 20260830071913 | 85 | 133 | 0.0 | 3.0 | 0.00 | 0.00 | 0.00 | 46 | 1015.4 |
| 20260830071408 | 86 | 141 | 0.0 | 2.0 | 0.00 | 0.00 | 0.00 | 45 | 1015.6 |
| 20260830070907 | 86 | 207 | 2.0 | 6.0 | 0.00 | 0.00 | 0.00 | 44 | 1015.3 |
| 20260830070401 | 86 | 190 | 4.0 | 4.0 | 0.00 | 0.00 | 0.00 | 44 | 1015.5 |
| 20260830065900 | 87 | 172 | 5.0 | 7.0 | 0.00 | 0.00 | 0.00 | 43 | 1015.6 |
| 20260830065354 | 87 | 118 | 1.0 | 2.0 | 0.00 | 0.00 | 0.00 | 43 | 1015.6 |
| 20260830064853 | 87 | 184 | 2.0 | 9.0 | 0.00 | 0.00 | 0.00 | 42 | 1015.5 |
| 20260830064349 | 87 | 202 | 3.0 | 7.0 | 0.00 | 0.00 | 0.00 | 42 | 1015.5 |
| 20260830063847 | 87 | 186 | 2.0 | 3.0 | 0.00 | 0.00 | 0.00 | 42 | 1015.4 |
| 20260830063343 | 87 | 175 | 1.0 | 6.0 | 0.00 | 0.00 | 0.00 | 42 | 1015.5 |
| 20260830062837 | 87 | 188 | 1.0 | 3.0 | 0.00 | 0.00 | 0.00 | 42 | 1015.5 |
| 20260830062336 | 88 | 146 | 2.0 | 3.0 | 0.00 | 0.00 | 0.00 | 42 | 1015.5 |
| 20260830061832 | 87 | 196 | 3.0 | 4.0 | 0.00 | 0.00 | 0.00 | 42 | 1015.7 |
| 20260830061331 | 88 | 177 | 1.0 | 3.0 | 0.00 | 0.00 | 0.00 | 41 | 1015.7 |
| 20260830060828 | 88 | 179 | 1.0 | 4.0 | 0.00 | 0.00 | 0.00 | 41 | 1015.7 |
| 20260830060325 | 88 | 249 | 5.0 | 8.0 | 0.00 | 0.00 | 0.00 | 41 | 1015.4 |
| 20260830055825 | 88 | 147 | 5.0 | 7.0 | 0.00 | 0.00 | 0.00 | 41 | 1015.7 |
| 20260830055321 | 88 | 179 | 1.0 | 7.0 | 0.00 | 0.00 | 0.00 | 42 | 1015.5 |
| 20260830054821 | 88 | 153 | 2.0 | 6.0 | 0.00 | 0.00 | 0.00 | 41 | 1015.5 |
| 20260830054317 | 88 | 170 | 3.0 | 4.0 | 0.00 | 0.00 | 0.00 | 42 | 1015.7 |
| 20260830053813 | 88 | 216 | 4.0 | 4.0 | 0.00 | 0.00 | 0.00 | 42 | 1015.8 |
| 20260830053308 | 88 | 110 | 1.0 | 2.0 | 0.00 | 0.00 | 0.00 | 42 | 1015.6 |
| 20260830052807 | 88 | 164 | 4.0 | 8.0 | 0.00 | 0.00 | 0.00 | 42 | 1015.7 |
| 20260830052306 | 88 | 127 | 2.0 | 7.0 | 0.00 | 0.00 | 0.00 | 42 | 1015.6 |
| 20260830051758 | 88 | 167 | 3.0 | 4.0 | 0.00 | 0.00 | 0.00 | 42 | 1015.6 |
| 20260830051253 | 88 | 237 | 2.0 | 3.0 | 0.00 | 0.00 | 0.00 | 42 | 1015.7 |
| 20260830050751 | 88 | 206 | 5.0 | 7.0 | 0.00 | 0.00 | 0.00 | 42 | 1015.6 |
| 20260830050242 | 88 | 253 | 2.0 | 3.0 | 0.00 | 0.00 | 0.00 | 42 | 1015.8 |
| 20260830045739 | 89 | 205 | 2.0 | 9.0 | 0.00 | 0.00 | 0.00 | 42 | 1015.7 |
| 20260830045235 | 88 | 196 | 1.0 | 6.0 | 0.00 | 0.00 | 0.00 | 42 | 1015.7 |
| 20260830044733 | 88 | 237 | 7.0 | 9.0 | 0.00 | 0.00 | 0.00 | 42 | 1015.7 |
| 20260830044230 | 89 | 161 | 0.0 | 2.0 | 0.00 | 0.00 | 0.00 | 42 | 1015.9 |
| 20260830043724 | 88 | 189 | 2.0 | 3.0 | 0.00 | 0.00 | 0.00 | 42 | 1015.8 |
| 20260830043219 | 89 | 156 | 3.0 | 6.0 | 0.00 | 0.00 | 0.00 | 42 | 1015.8 |
| 20260830042716 | 89 | 183 | 1.0 | 9.0 | 0.00 | 0.00 | 0.00 | 42 | 1015.8 |
| 20260830042212 | 89 | 204 | 4.0 | 6.0 | 0.00 | 0.00 | 0.00 | 42 | 1015.7 |
| 20260830041709 | 89 | 170 | 3.0 | 6.0 | 0.00 | 0.00 | 0.00 | 41 | 1015.9 |
| 20260830041204 | 89 | 172 | 2.0 | 4.0 | 0.00 | 0.00 | 0.00 | 41 | 1015.7 |
| 20260830040659 | 90 | 208 | 4.0 | 7.0 | 0.00 | 0.00 | 0.00 | 41 | 1015.9 |